STARLINK AC

Last updated on Sat Jul 15 2023 00:02:05 GMT+0000 (Coordinated Universal Time)

1 57244U 23094AC 23195.75001157 -.01070187 34121-3 -30633-2 0 9993 2 57244 42.9952 276.0493 0024402 200.0577 241.3336 15.91744573 1301

Satellite not in orbit

STARLINK AC